Regional Weather Roundup
Issued by NWS Wilmington, NC

Home | Current Version | Previous Version | Text Only | Print | Product List | Glossary On
Versions: 1 2 3 4 5 6 7 8 9 10 11 12 13 14 15 16 17 18 19 20 21 22 23 24 25 26 27 28 29
000
ASUS42 KILM 080112
RWRILM
RWRILM
REGIONAL HOURLY WEATHER ROUNDUP
NATIONAL WEATHER SERVICE WILMINGTON NC
800 PM EST WED DEC 07 2016

NOTE: "FAIR" INDICATES FEW OR NO CLOUDS BELOW 12,000 FEET WITH NO
SIGNIFICANT WEATHER AND/OR OBSTRUCTIONS TO VISIBILITY.

...............WFO WILMINGTON COUNTY WARNING AREA...............

......COASTAL NC AND SC COUNTIES......

CITY           SKY/WX    TMP DP  RH WIND       PRES   REMARKS
WILMINGTON     CLEAR     48  48 100 CALM      30.09R
N MYRTLE BEACH CLEAR     48  48 100 CALM      30.08R
MYRTLE BEACH   CLEAR     52  41  66 S7        30.11

......INLAND NC AND SC COUNTIES.......

CITY           SKY/WX    TMP DP  RH WIND       PRES   REMARKS
LUMBERTON      PTCLDY    48  48 100 CALM      30.07S
ELIZABETHTOWN  CLEAR     48  47  97 CALM      30.08S
WHITEVILLE     CLEAR     48  47  93 CALM      30.08S
FLORENCE       CLOUDY    57  51  80 SW7       30.07S
DARLINGTON     CLOUDY    54  51  90 CALM      30.07F
KINGSTREE      CLOUDY    52  48  87 SW5       30.09S
HARTSVILLE     CLOUDY    54  48  82 S3        30.06S
BENNETTSVILLE  MOCLDY    54  50  87 CALM      30.06F
CONWAY         FAIR      46  46 100 CALM      30.09S
GEORGETOWN     FAIR      45  45 100 CALM      30.10S
MARION         CLOUDY    50  46  87 SE3       30.08R

....................REST OF NORTH CAROLINA......................

.........EASTERN NC.........

CITY           SKY/WX    TMP DP  RH WIND       PRES   REMARKS
CAPE HATTERAS  NOT AVBL
JACKSONVILLE   CLEAR     43  43 100 CALM      30.10R
MOREHEAD CITY  PTCLDY    49  45  86 E3        30.10R
KENANSVILLE    NOT AVBL
NEW BERN       CLEAR     44  42  93 CALM      30.10R
ELIZABETH CITY CLEAR     46  42  86 E5        30.10S

.........CENTRAL NC.........

CITY           SKY/WX    TMP DP  RH WIND       PRES   REMARKS
RALEIGH DURHAM PTCLDY    46  42  86 CALM      30.07S
ROCKY MOUNT    CLEAR     41  41 100 CALM      30.08F
ROANOKE RAPIDS NOT AVBL
FAYETTEVILLE   CLEAR     50  46  86 SE3       30.06F
HOFFMAN        CLEAR     44  43  95 CALM      30.06F

.........WESTERN NC.........

CITY           SKY/WX    TMP DP  RH WIND       PRES   REMARKS
CHARLOTTE      CLOUDY    52  45  77 W3        30.07R
GREENSBORO     CLOUDY    50  38  63 CALM      30.06R
HICKORY        NOT AVBL
BOONE          NOT AVBL
ASHEVILLE      NOT AVBL

.....................REST OF SOUTH CAROLINA.....................

.........EASTERN SC.........

CITY           SKY/WX    TMP DP  RH WIND       PRES   REMARKS
CHARLESTON     PTCLDY    52  49  89 NE3       30.09R
BEAUFORT MCAS  MOCLDY    53  52  96 CALM      30.09R
HILTON HEAD    NOT AVBL

.........CENTRAL SC.........

CITY           SKY/WX    TMP DP  RH WIND       PRES   REMARKS
COLUMBIA       CLOUDY    54  50  86 CALM      30.08S
ORANGEBURG     CLOUDY    53  51  93 CALM      30.09S
SUMTER SHAW    MOCLDY    53  49  87 SW5       30.06S

.........WESTERN SC.........

CITY           SKY/WX    TMP DP  RH WIND       PRES   REMARKS
GREENVILLE     NOT AVBL
ROCK HILL      CLOUDY    52  48  86 CALM      30.07R
ANDERSON       PTCLDY    47  45  93 W3        30.06F FOG
CLEMSON        NOT AVBL
GREENWOOD      FOG       45  44  97 CALM      30.08F VSB 1/4


...................COASTAL AND OFFSHORE REPORTS..................

................LOCAL PIERS AND NC RESERVE................


STATION/POSITION TIME  SKY/WX   TEMP    WIND        PRES    VSBY
                                AIR SEA DIR/SP/G
                 (UTC)          (F)     (DEG/KT/KT) (MB)    (MI)
JOHNY MRCER PIER 0036            55 62  260/  3/  3 1017.6R
NC RESRV MASNBRO 2345            51     310/  2     1017.0
OCEAN CREST PIER NOT AVBL
SPRINGMAID  PIER NOT AVBL


................COASTAL AND OFFSHORE BUOYS................


STATION/POSITION TIME  SKY/WX   TEMP    WIND        PRES    VSBY
                                AIR SEA DIR/SP/G
                 (UTC)          (F)     (DEG/KT/KT) (MB)    (MI)
DIMNDSHOAL 41025 2350            58 77   10/ 12/ 16 1018.5
WVE H/P(F/S)=  7/11 SWL H/P/D(F/S/D)=  7/ 50/11

CAPE LOOKOUT     0000            52      20/  7/  7 1018.3R
ONSLOW BAY 41036 NOT AVBL
ONSLOW BAY 41064 0008            57 70   50/  4/  8 1018.7R
ONSLOW BAY 41159 NOT AVBL
5SE WRITBC 41038 0008            55 61  130/  4/  8 1017.8R
MASNBO INL 41110 0059               62                N/A
WVE H/P(F/S)=  2/ 8

WILM HARBR 41108 0056               62                N/A
WVE H/P(F/S)=  2/ 7

27SE WRITB 41037 0008            59 68   90/  4/  8 1018.2R
FRYING PAN 41013 0050            61      70/  4/  6 1018.5R
SUNST NRSH 41024 0008            59 60  200/  6/  8 1018.3R
CAPRS NRSH 41029 0008            57 61  270/  8/ 10 1018.6R
EDISTO     41004 2350            63 74  290/  4/  6 1017.9
WVE H/P(F/S)=  2/ 7 SWL H/P/D(F/S/D)=  2/180/ 7



..........OFFSHORE BUOYS BEYOND 100 NM OFFSHORE...........
.....IN A TRIANGLE---HAT TO BERMUDA TO BAHAMAS TO HAT.....


STATION/POSITION TIME  SKY/WX   TEMP    WIND        PRES    VSBY
                                AIR SEA DIR/SP/G
                 (UTC)          (F)     (DEG/KT/KT) (MB)    (MI)
150E HAT   41001 NOT AVBL
W BERMUDA  41048 2350            71 73  300/ 16/ 19 1015.2
WVE H/P(F/S)=  9/ 9 SWL H/P/D(F/S/D)=  7/280/ 9

ATLANTIC S 41049 2350            76 76  270/ 10/ 12 1018.8
WVE H/P(F/S)=  4/ 8 SWL H/P/D(F/S/D)=  3/320/ 8

E BAHAMAS  41046 0050            77     150/  2/  4 1019.4R
WVE H/P(F/S)=  3/11 SWL H/P/D(F/S/D)=  3/11

NE BAHAMAS 41047 0050            78 78  260/ 10/ 12 1017.5R
WVE H/P(F/S)=  4/ 5 SWL H/P/D(F/S/D)=  3/230/ 5

120E CANVRL41010 NOT AVBL

END




USA.gov is the U.S. government's official web portal to all federal, state and local government web resources and services.